Location: Balsareny
(41.8670°N, 1.8830°E)
Time: 12:28:36
(UTC+02:00)

Hubble Space Telescope - Visible Passes

Search period start: 25 September 2022 00:00
Search period end: 05 October 2022 00:00
Orbit: 532 x 535 km, 28.5° (Epoch: 23 September)

Date Brightness Start Highest point End Pass type
(mag) Time Alt. Az. Time Alt. Az. Time Alt. Az.
27 Sep 3.2 20:08:03 10° S 20:08:26 10° S 20:08:49 10° SSE visible
27 Sep 3.4 21:46:59 10° SSW 21:47:18 11° SSW 21:47:18 11° SSW visible
28 Sep 3.2 21:34:47 10° SSW 21:35:44 12° SSW 21:35:44 12° SSW visible
29 Sep 3.2 21:22:41 10° SSW 21:23:57 11° S 21:24:09 11° S visible
30 Sep 3.2 21:10:50 10° SSW 21:11:36 10° S 21:12:22 10° S visible
